Snowfall_Accumulation
1.7 1.9 2.1 1.7 1.7 1.9 2.3 3.5 6.7 5.7 1.9 0.6 0.1 0.0 0.1 0.1 0.1 0.1 0.1 0.1 0.2 0.4 0.4 0.4 0.3 0.3 0.3 0.3 0.3 0.2 0.3 0.1 0.1 0.0 0.0 0.0 0.0 0.0
1.8 2.0 2.2 2.1 1.9 1.9 2.1 2.6 3.9 6.3 4.7 1.0 0.6 0.1 0.1 0.1 0.1 0.1 0.1 0.1 0.2 0.3 0.3 0.2 0.3 0.2 0.2 0.3 0.2 0.3 0.3 0.2 0.1 0.0 0.0 0.0 0.0 0.0
1.7 2.0 2.3 2.1 2.1 1.7 2.0 2.5 2.7 3.9 5.4 1.2 0.5 0.2 0.1 0.1 0.1 0.1 0.1 0.1 0.1 0.1 0.2 0.3 0.3 0.3 0.2 0.2 0.2 0.2 0.2 0.2 0.1 0.1 0.0 0.0 0.0 0.0
2.4 2.4 2.3 2.1 2.3 2.4 2.5 2.7 2.8 2.7 4.5 3.7 1.1 0.5 0.3 0.3 0.2 0.2 0.1 0.1 0.1 0.1 0.2 0.3 0.3 0.3 0.2 0.2 0.2 0.2 0.2 0.2 0.2 0.1 0.1 0.0 0.0 0.0
3.5 4.0 3.9 3.1 3.4 3.4 3.4 3.6 3.0 2.3 2.9 3.7 2.5 1.2 1.3 0.4 0.6 0.5 0.4 0.1 0.1 0.1 0.2 0.2 0.2 0.2 0.2 0.3 0.2 0.3 0.3 0.2 0.2 0.2 0.2 0.1 0.1 0.1
7.3 5.7 6.5 7.1 5.7 4.5 4.5 3.9 3.4 3.6 3.4 4.0 3.4 2.4 1.7 1.3 1.3 1.2 1.1 0.6 0.7 0.4 0.2 0.2 0.2 0.2 0.3 0.3 0.4 0.4 0.3 0.4 0.3 0.3 0.3 0.3 0.3 0.3
6.2 6.2 6.3 5.6 4.0 5.6 5.5 5.4 5.1 5.6 5.4 5.6 5.0 3.8 2.9 2.9 3.4 2.2 2.4 1.3 0.9 0.9 0.8 0.5 0.4 0.3 0.3 0.3 0.3 0.3 0.4 0.4 0.4 0.4 0.4 0.3 0.3 0.3
4.8 4.5 4.7 5.6 6.5 4.2 4.3 4.7 5.4 8.1 9.1 8.3 6.9 6.0 4.4 3.6 3.5 3.9 4.1 5.0 5.2 1.4 1.4 1.4 1.1 0.9 0.5 0.2 0.3 0.3 0.5 0.6 0.5 0.5 0.5 0.5 0.5 0.5
2.9 3.2 3.1 3.3 4.7 5.2 5.8 5.2 5.9 5.4 7.1 9.5 10.0 6.9 4.7 4.1 5.2 6.0 5.6 6.7 6.4 3.5 2.5 3.3 1.5 1.7 0.8 0.5 0.5 0.5 0.5 0.7 0.6 0.7 0.7 0.7 0.7 0.7
2.3 2.3 2.3 2.7 3.8 4.8 5.9 6.0 5.8 7.0 8.7 9.6 11.1 9.0 5.5 4.5 5.8 7.6 8.0 7.9 5.7 3.4 2.8 6.2 2.9 2.1 1.4 0.9 0.5 0.6 1.0 1.0 0.7 0.7 0.7 0.9 0.8 0.9
2.1 2.0 2.1 2.1 3.3 4.7 5.4 5.4 4.6 5.1 5.6 7.0 7.8 7.5 6.2 4.0 4.5 8.0 10.6 12.0 10.2 5.3 3.1 6.5 4.3 3.7 2.3 1.4 0.6 0.6 0.8 0.9 0.9 1.0 0.7 1.0 1.0 1.2
1.8 1.6 2.4 2.9 3.6 3.7 4.6 5.5 6.2 4.8 4.1 4.4 4.7 5.0 5.4 4.5 3.4 6.8 9.3 12.9 12.2 10.1 4.9 6.4 5.7 6.4 8.0 3.9 0.9 0.6 0.6 0.5 0.5 0.7 0.8 0.8 1.0 1.0
3.2 2.1 2.2 2.9 3.0 3.1 3.4 5.0 6.6 5.0 4.0 4.6 4.9 5.2 5.5 6.0 5.2 5.3 7.0 10.4 12.9 11.9 7.5 9.1 10.2 8.6 11.3 9.0 2.9 1.1 1.2 0.7 0.6 0.6 0.6 0.7 0.9 1.2
4.2 2.3 2.1 2.4 2.4 2.5 3.0 2.8 3.2 3.7 4.8 5.3 5.3 5.2 5.9 6.8 7.3 8.0 8.5 8.5 8.6 9.1 6.9 8.2 14.2 12.4 14.1 12.5 7.8 4.2 2.7 1.4 1.3 1.3 0.9 0.8 1.0 1.0
4.3 3.2 2.3 2.3 2.5 2.5 1.9 3.1 3.5 4.3 5.7 6.4 6.0 5.4 5.6 6.3 6.6 7.6 7.7 7.8 7.7 6.2 6.4 5.5 9.5 11.2 13.0 13.6 9.1 5.9 4.7 2.6 1.4 1.7 1.8 1.6 1.5 1.5
4.2 3.1 2.5 2.5 2.8 2.7 2.8 3.0 3.2 4.3 5.8 6.8 6.3 5.4 4.5 5.6 7.0 7.5 9.0 8.5 9.5 8.6 7.1 4.6 5.9 9.0 12.1 9.5 8.0 7.1 5.3 5.1 2.9 2.1 2.1 1.7 1.4 1.3
5.2 4.9 4.2 4.1 4.4 4.0 3.5 3.8 3.7 4.2 5.0 5.5 5.8 6.0 5.7 6.3 7.0 7.5 9.4 10.1 11.1 10.9 8.9 6.2 5.9 5.9 7.6 8.3 10.1 7.1 5.5 4.7 3.2 2.7 3.0 3.1 2.3 1.8
5.8 7.0 5.4 4.8 5.2 5.2 5.2 4.9 4.4 4.3 4.6 4.9 5.5 5.7 6.4 7.1 7.7 7.7 9.0 11.0 12.0 11.3 11.6 10.1 9.6 10.5 10.2 9.8 8.1 6.9 5.3 4.5 3.2 2.8 3.0 4.0 3.6 2.1
5.7 5.7 5.2 5.6 5.8 5.9 5.5 5.5 4.9 4.0 4.1 4.9 5.4 5.8 6.3 7.0 7.6 8.5 9.1 10.4 11.3 11.5 11.7 11.4 12.2 13.8 15.2 16.4 13.0 6.7 6.6 5.2 3.7 3.0 2.9 3.9 5.0 3.2
4.9 5.9 5.9 5.8 6.1 6.1 5.8 5.5 4.6 4.1 4.3 4.9 5.3 5.5 6.3 7.1 7.7 8.1 8.8 10.5 11.3 11.8 12.2 11.5 12.8 15.8 18.0 17.3 15.7 12.2 6.1 5.9 5.6 4.9 3.2 2.5 2.3 1.6
6.1 5.8 6.1 5.8 5.7 5.7 5.6 5.6 5.5 5.2 4.6 5.0 5.3 5.7 5.8 7.1 7.5 7.8 8.5 9.4 11.2 12.6 13.2 12.8 12.9 14.2 14.2 12.9 13.9 12.5 10.1 6.1 5.3 6.6 6.3 6.4 5.9 4.5
6.8 6.2 5.7 5.4 5.7 5.7 5.7 5.7 5.7 5.4 4.8 4.9 5.2 5.2 6.0 6.6 7.3 7.7 8.4 9.7 10.2 10.9 11.9 11.6 11.4 12.9 14.5 15.1 14.3 11.3 10.7 8.2 6.7 4.7 4.4 5.7 11.2 14.5
7.6 6.8 5.8 5.6 5.5 5.8 6.1 6.0 5.9 5.5 5.5 5.1 5.1 5.6 5.8 6.5 6.5 7.1 7.6 8.3 9.0 9.7 10.9 11.9 11.9 13.4 14.2 14.4 14.3 12.4 11.0 9.3 7.9 7.0 6.5 3.0 2.9 3.5